Time,TemperatureF,DewpointF,PressureIn,WindDirection,WindDirectionDegrees,WindSpeedMPH,WindSpeedGustMPH,Humidity,HourlyPrecipIn,Conditions,Clouds,dailyrainin,SoftwareType,DateUTC
2013-03-10 00:00:00,50.2,49.7,29.54,ENE,67,5.3,-999.0,98,-99.99,,,0.00,Acu-Link.com,2013-03-10 06:00:00,
2013-03-10 00:15:00,50.4,49.9,29.54,East,90,7.8,-999.0,98,-99.99,,,0.00,Acu-Link.com,2013-03-10 06:15:00,
2013-03-10 00:30:00,50.9,50.4,29.51,ESE,112,7.3,-999.0,98,-99.99,,,0.01,Acu-Link.com,2013-03-10 06:30:00,
2013-03-10 00:45:00,50.9,50.4,29.51,SSE,157,8.9,-999.0,98,-99.99,,,0.01,Acu-Link.com,2013-03-10 06:45:00,
2013-03-10 01:00:00,50.5,50.0,29.52,South,180,3.7,-999.0,98,-99.99,,,0.01,Acu-Link.com,2013-03-10 07:00:00,
2013-03-10 01:15:00,51.1,50.6,29.52,South,180,5.8,-999.0,98,-99.99,,,0.01,Acu-Link.com,2013-03-10 07:15:00,
2013-03-10 01:30:00,50.7,50.2,29.54,SSW,202,6.3,-999.0,98,-99.99,,,0.01,Acu-Link.com,2013-03-10 07:30:00,
2013-03-10 01:45:00,50.2,49.7,29.54,SE,135,0.0,-999.0,98,-99.99,,,0.01,Acu-Link.com,2013-03-10 07:45:00,
2013-03-10 03:00:00,49.6,49.1,29.53,SE,135,1.7,-999.0,98,-99.99,,,0.01,Acu-Link.com,2013-03-10 08:00:00,
2013-03-10 03:16:00,49.5,49.0,29.53,ESE,112,0.0,-999.0,98,-99.99,,,0.01,Acu-Link.com,2013-03-10 08:16:00,
2013-03-10 03:31:00,49.6,49.1,29.54,East,90,0.0,-999.0,98,-99.99,,,0.01,Acu-Link.com,2013-03-10 08:31:00,
2013-03-10 03:46:00,48.7,48.2,29.52,NE,45,1.7,-999.0,98,-99.99,,,0.01,Acu-Link.com,2013-03-10 08:46:00,
2013-03-10 04:01:00,48.7,48.2,29.54,North,0,0.0,-999.0,98,-99.99,,,0.01,Acu-Link.com,2013-03-10 09:01:00,
2013-03-10 04:16:00,48.9,48.4,29.53,ENE,67,2.2,-999.0,98,-99.99,,,0.01,Acu-Link.com,2013-03-10 09:16:00,
2013-03-10 04:31:00,48.9,48.4,29.51,NE,45,3.7,-999.0,98,-99.99,,,0.01,Acu-Link.com,2013-03-10 09:31:00,
2013-03-10 04:46:00,49.1,48.6,29.50,NE,45,2.7,-999.0,98,-99.99,,,0.01,Acu-Link.com,2013-03-10 09:46:00,
2013-03-10 05:01:00,49.3,48.8,29.52,ESE,112,2.2,-999.0,98,-99.99,,,0.01,Acu-Link.com,2013-03-10 10:01:00,
2013-03-10 05:16:00,50.0,49.5,29.51,East,90,2.7,-999.0,98,-99.99,,,0.01,Acu-Link.com,2013-03-10 10:16:00,
2013-03-10 05:32:00,49.5,49.0,29.55,South,180,4.7,-999.0,98,-99.99,,,0.01,Acu-Link.com,2013-03-10 10:32:00,
2013-03-10 05:47:00,49.5,49.0,29.56,SSW,202,3.2,-999.0,98,-99.99,,,0.01,Acu-Link.com,2013-03-10 10:47:00,
2013-03-10 06:02:00,50.4,49.9,29.56,SSW,202,6.8,-999.0,98,-99.99,,,0.01,Acu-Link.com,2013-03-10 11:02:00,
2013-03-10 06:17:00,51.8,51.3,29.56,South,180,10.4,-999.0,98,-99.99,,,0.01,Acu-Link.com,2013-03-10 11:17:00,
2013-03-10 06:32:00,52.2,51.7,29.57,SSW,202,15.0,-999.0,98,-99.99,,,0.01,Acu-Link.com,2013-03-10 11:32:00,
2013-03-10 06:47:00,53.1,47.1,29.55,South,180,10.4,-999.0,80,-99.99,,,0.01,Acu-Link.com,2013-03-10 11:47:00,
2013-03-10 07:03:00,52.2,47.8,29.55,SSE,157,7.3,-999.0,85,-99.99,,,0.01,Acu-Link.com,2013-03-10 12:03:00,
2013-03-10 07:18:00,51.6,49.9,29.57,South,180,9.9,-999.0,94,-99.99,,,0.01,Acu-Link.com,2013-03-10 12:18:00,
2013-03-10 07:33:00,51.3,49.6,29.60,SW,225,10.9,-999.0,94,-99.99,,,0.01,Acu-Link.com,2013-03-10 12:33:00,
2013-03-10 07:48:00,51.1,48.9,29.61,South,180,10.4,-999.0,92,-99.99,,,0.01,Acu-Link.com,2013-03-10 12:48:00,
2013-03-10 08:03:00,50.4,49.3,29.60,South,180,11.9,-999.0,96,-99.99,,,0.01,Acu-Link.com,2013-03-10 13:03:00,
2013-03-10 08:18:00,49.5,49.0,29.58,South,180,8.9,-999.0,98,-99.99,,,0.01,Acu-Link.com,2013-03-10 13:18:00,
2013-03-10 08:33:00,49.1,48.6,29.59,SSE,157,7.3,-999.0,98,-99.99,,,0.01,Acu-Link.com,2013-03-10 13:33:00,
2013-03-10 08:48:00,48.7,48.2,29.58,South,180,7.3,-999.0,98,-99.99,,,0.01,Acu-Link.com,2013-03-10 13:48:00,
2013-03-10 09:03:00,48.2,47.7,29.58,SSE,157,5.3,-999.0,98,-99.99,,,0.02,Acu-Link.com,2013-03-10 14:03:00,
2013-03-10 09:19:00,48.2,47.7,29.59,South,180,7.8,-999.0,98,-99.99,,,0.03,Acu-Link.com,2013-03-10 14:19:00,
2013-03-10 09:34:00,48.2,47.7,29.61,SSW,202,6.8,-999.0,98,-99.99,,,0.03,Acu-Link.com,2013-03-10 14:34:00,
2013-03-10 09:49:00,48.0,47.5,29.61,SSE,157,9.9,-999.0,98,-99.99,,,0.04,Acu-Link.com,2013-03-10 14:49:00,
2013-03-10 10:04:00,48.4,47.9,29.59,SSE,157,10.9,-999.0,98,-99.99,,,0.08,Acu-Link.com,2013-03-10 15:04:00,
2013-03-10 10:19:00,48.4,47.9,29.58,SSE,157,10.4,-999.0,98,-99.99,,,0.09,Acu-Link.com,2013-03-10 15:19:00,
2013-03-10 10:34:00,48.4,47.9,29.57,SE,135,7.8,-999.0,98,-99.99,,,0.09,Acu-Link.com,2013-03-10 15:34:00,
2013-03-10 10:50:00,48.7,48.2,29.58,SSE,157,6.3,-999.0,98,-99.99,,,0.09,Acu-Link.com,2013-03-10 15:50:00,
2013-03-10 11:05:00,48.9,48.4,29.57,SSE,157,4.7,-999.0,98,-99.99,,,0.09,Acu-Link.com,2013-03-10 16:05:00,
2013-03-10 11:20:00,49.3,48.8,29.58,SSE,157,6.8,-999.0,98,-99.99,,,0.09,Acu-Link.com,2013-03-10 16:20:00,
2013-03-10 11:35:00,49.1,48.6,29.59,SE,135,8.3,-999.0,98,-99.99,,,0.09,Acu-Link.com,2013-03-10 16:35:00,
2013-03-10 11:50:00,48.9,48.4,29.57,SSE,157,6.8,-999.0,98,-99.99,,,0.09,Acu-Link.com,2013-03-10 16:50:00,
2013-03-10 12:05:00,49.1,48.6,29.58,South,180,10.4,-999.0,98,-99.99,,,0.09,Acu-Link.com,2013-03-10 17:05:00,
2013-03-10 12:20:00,49.6,49.1,29.56,SSE,157,6.8,-999.0,98,-99.99,,,0.09,Acu-Link.com,2013-03-10 17:20:00,
2013-03-10 12:42:00,49.6,49.1,29.54,South,180,8.9,-999.0,98,-99.99,,,0.09,Acu-Link.com,2013-03-10 17:42:00,
2013-03-10 13:02:00,49.8,49.3,29.55,South,180,11.4,-999.0,98,-99.99,,,0.09,Acu-Link.com,2013-03-10 18:02:00,
2013-03-10 13:17:00,49.5,49.0,29.55,SSW,202,9.9,-999.0,98,-99.99,,,0.09,Acu-Link.com,2013-03-10 18:17:00,
2013-03-10 13:32:00,49.8,49.3,29.55,South,180,6.8,-999.0,98,-99.99,,,0.11,Acu-Link.com,2013-03-10 18:32:00,
2013-03-10 13:47:00,49.5,49.0,29.53,SSE,157,4.7,-999.0,98,-99.99,,,0.13,Acu-Link.com,2013-03-10 18:47:00,
2013-03-10 14:03:00,49.3,48.8,29.53,SSE,157,7.3,-999.0,98,-99.99,,,0.15,Acu-Link.com,2013-03-10 19:03:00,
2013-03-10 14:21:00,49.5,49.0,29.52,South,180,6.3,-999.0,98,-99.99,,,0.21,Acu-Link.com,2013-03-10 19:21:00,
2013-03-10 14:45:00,41.4,40.9,29.55,NW,315,6.8,-999.0,98,-99.99,,,0.21,Acu-Link.com,2013-03-10 19:45:00,
2013-03-10 15:16:00,41.4,40.9,29.56,WNW,292,8.3,-999.0,98,-99.99,,,0.33,Acu-Link.com,2013-03-10 20:16:00,
2013-03-10 15:32:00,41.2,40.7,29.56,West,270,4.7,-999.0,98,-99.99,,,0.33,Acu-Link.com,2013-03-10 20:32:00,
2013-03-10 15:48:00,41.0,40.5,29.57,West,270,9.4,-999.0,98,-99.99,,,0.33,Acu-Link.com,2013-03-10 20:48:00,
2013-03-10 16:03:00,40.5,40.0,29.56,WSW,247,9.9,-999.0,98,-99.99,,,0.33,Acu-Link.com,2013-03-10 21:03:00,
2013-03-10 16:18:00,39.9,39.4,29.57,West,270,7.3,-999.0,98,-99.99,,,0.33,Acu-Link.com,2013-03-10 21:18:00,
2013-03-10 16:40:00,39.9,39.4,29.58,West,270,8.3,-999.0,98,-99.99,,,0.33,Acu-Link.com,2013-03-10 21:40:00,
2013-03-10 16:55:00,38.7,38.2,29.59,ESE,112,4.7,-999.0,98,-99.99,,,0.33,Acu-Link.com,2013-03-10 21:55:00,
2013-03-10 17:11:00,38.5,38.0,29.60,NW,315,8.9,-999.0,98,-99.99,,,0.33,Acu-Link.com,2013-03-10 22:11:00,
2013-03-10 17:26:00,37.8,37.3,29.61,WNW,292,11.4,-999.0,98,-99.99,,,0.33,Acu-Link.com,2013-03-10 22:26:00,
2013-03-10 17:41:00,37.4,36.9,29.60,West,270,8.3,-999.0,98,-99.99,,,0.33,Acu-Link.com,2013-03-10 22:41:00,
2013-03-10 18:11:00,36.5,36.0,29.62,West,270,8.9,-999.0,98,-99.99,,,0.33,Acu-Link.com,2013-03-10 23:11:00,
2013-03-10 18:26:00,35.4,34.9,29.63,NW,315,8.9,-999.0,98,-99.99,,,0.33,Acu-Link.com,2013-03-10 23:26:00,
2013-03-10 18:41:00,34.5,34.0,29.65,NW,315,14.0,-999.0,98,-99.99,,,0.33,Acu-Link.com,2013-03-10 23:41:00,
2013-03-10 18:56:00,33.8,33.3,29.65,NW,315,7.3,-999.0,98,-99.99,,,0.33,Acu-Link.com,2013-03-10 23:56:00,
2013-03-10 19:11:00,33.4,32.9,29.67,NW,315,6.3,-999.0,98,-99.99,,,0.33,Acu-Link.com,2013-03-11 00:11:00,
2013-03-10 19:27:00,32.9,32.4,29.68,West,270,7.8,-999.0,98,-99.99,,,0.33,Acu-Link.com,2013-03-11 00:27:00,
2013-03-10 19:42:00,32.9,32.4,29.69,West,270,10.9,-999.0,98,-99.99,,,0.33,Acu-Link.com,2013-03-11 00:42:00,
2013-03-10 19:57:00,32.7,32.2,29.69,WNW,292,14.0,-999.0,98,-99.99,,,0.33,Acu-Link.com,2013-03-11 00:57:00,
2013-03-10 20:12:00,32.4,31.9,29.70,West,270,9.4,-999.0,98,-99.99,,,0.33,Acu-Link.com,2013-03-11 01:12:00,
2013-03-10 20:27:00,32.0,31.5,29.70,West,270,13.0,-999.0,98,-99.99,,,0.33,Acu-Link.com,2013-03-11 01:27:00,
2013-03-10 20:42:00,31.8,31.3,29.70,WNW,292,17.6,-999.0,98,-99.99,,,0.33,Acu-Link.com,2013-03-11 01:42:00,
2013-03-10 20:58:00,31.6,31.1,29.71,NNW,337,7.8,-999.0,98,-99.99,,,0.33,Acu-Link.com,2013-03-11 01:58:00,
2013-03-10 21:13:00,31.5,31.0,29.72,West,270,8.9,-999.0,98,-99.99,,,0.33,Acu-Link.com,2013-03-11 02:13:00,
2013-03-10 21:28:00,31.5,31.0,29.71,WNW,292,7.3,-999.0,98,-99.99,,,0.33,Acu-Link.com,2013-03-11 02:28:00,
2013-03-10 21:43:00,31.1,30.3,29.73,WNW,292,10.4,-999.0,97,-99.99,,,0.33,Acu-Link.com,2013-03-11 02:43:00,
2013-03-10 21:58:00,31.1,30.3,29.73,NW,315,10.4,-999.0,97,-99.99,,,0.33,Acu-Link.com,2013-03-11 02:58:00,
2013-03-10 22:13:00,30.9,30.2,29.73,NNW,337,5.8,-999.0,97,-99.99,,,0.33,Acu-Link.com,2013-03-11 03:13:00,
2013-03-10 22:28:00,30.9,29.9,29.73,West,270,6.8,-999.0,96,-99.99,,,0.33,Acu-Link.com,2013-03-11 03:28:00,
2013-03-10 22:43:00,30.9,29.9,29.75,WNW,292,14.5,-999.0,96,-99.99,,,0.33,Acu-Link.com,2013-03-11 03:43:00,
2013-03-10 22:59:00,30.9,29.9,29.74,West,270,9.9,-999.0,96,-99.99,,,0.33,Acu-Link.com,2013-03-11 03:59:00,
2013-03-10 23:14:00,30.9,29.9,29.75,West,270,6.8,-999.0,96,-99.99,,,0.33,Acu-Link.com,2013-03-11 04:14:00,
2013-03-10 23:29:00,30.9,29.9,29.75,SW,225,4.2,-999.0,96,-99.99,,,0.33,Acu-Link.com,2013-03-11 04:29:00,
2013-03-10 23:44:00,30.7,29.7,29.75,West,270,8.3,-999.0,96,-99.99,,,0.33,Acu-Link.com,2013-03-11 04:44:00,
2013-03-10 23:59:00,30.6,29.6,29.75,West,270,6.8,-999.0,96,-99.99,,,0.33,Acu-Link.com,2013-03-11 04:59:00,